FW2422 Weather Reports


time (UTC)temp
F
wind
direction
speed
knots
gust
knots
rain 1hr
in
rain 24hr
in
rain mn
in
humidity
%
barometer
mb
20260509103053 70 113 0.0 0.0 0.00 0.00 0.00 91 1008.7
20260509101553 70 112 0.0 0.0 0.00 0.00 0.00 91 1008.6
20260509100052 70 112 0.0 0.0 0.00 0.00 0.00 91 1008.3
20260509094551 69 262 0.0 1.7 0.00 0.00 0.00 91 1008.1
20260509084526 69 166 0.0 6.1 0.00 0.00 0.00 90 1007.3
20260509053041 71 139 0.0 0.0 0.00 0.00 0.00 84 1010.8
20260509051537 72 108 0.0 0.9 0.00 0.00 0.00 83 1009.9
20260509050053 72 117 0.9 2.6 0.00 0.00 0.00 82 1009.8
20260509044544 72 115 0.0 4.3 0.00 0.00 0.00 81 1009.5
20260509043035 73 128 0.9 2.6 0.00 0.00 0.00 81 1009.8
20260509041534 73 108 0.0 0.0 0.00 0.00 0.00 80 1010.3
20260509040032 72 108 0.0 0.0 0.00 0.00 0.00 80 1010.4
20260509034531 72 108 0.0 0.0 0.00 0.00 0.00 80 1010.0
20260509033032 72 108 0.0 0.0 0.00 0.00 0.00 80 1009.7
20260509031531 72 122 0.0 0.0 0.00 0.00 0.00 80 1009.8
20260509030037 72 180 0.0 0.0 0.00 0.00 0.00 79 1009.4
20260509024529 72 142 0.0 1.7 0.00 0.00 0.00 79 1009.2
20260509023036 72 149 0.0 3.5 0.00 0.00 0.00 78 1009.0
20260509021529 72 70 0.0 2.6 0.00 0.00 0.00 77 1008.8
20260509020028 73 94 0.0 1.7 0.00 0.00 0.00 77 1008.9
20260509014600 73 129 0.0 1.7 0.00 0.00 0.00 76 1009.0
20260509000040 74 188 0.0 3.5 0.00 0.00 0.00 72 1008.4
20260508193032 77 260 0.9 4.3 0.00 0.00 0.00 62 1010.7
20260508191528 76 104 1.7 6.1 0.00 0.00 0.00 61 1011.0
20260508190026 77 112 2.6 6.1 0.00 0.00 0.00 59 1011.1
20260508184531 79 148 0.0 4.3 0.00 0.00 0.00 59 1011.1
20260508183022 79 127 0.9 4.3 0.00 0.00 0.00 58 1011.2
20260508181527 79 129 1.7 5.2 0.00 0.00 0.00 58 1011.5
20260508180019 79 117 0.9 4.3 0.00 0.00 0.00 58 1011.6
20260508174516 78 123 0.0 4.3 0.00 0.00 0.00 57 1012.0
20260508173021 77 114 0.0 5.2 0.00 0.00 0.00 58 1012.2
20260508171517 76 90 0.0 3.5 0.00 0.00 0.00 59 1012.2
20260508170004 75 106 0.9 6.1 0.00 0.00 0.00 60 1012.9
20260508164601 75 171 1.7 4.3 0.00 0.00 0.00 59 1013.4
20260508163102 74 109 1.7 5.2 0.00 0.00 0.00 60 1013.4
20260508161604 73 148 0.0 4.3 0.00 0.00 0.00 62 1013.6
20260508160056 73 160 0.0 6.1 0.00 0.00 0.00 62 1013.7
20260508154549 72 129 1.7 7.0 0.00 0.00 0.00 63 1014.0
20260508153052 70 136 0.0 2.6 0.00 0.00 0.00 66 1014.1
20260508151546 70 93 0.0 5.2 0.00 0.00 0.00 64 1014.3
20260508150046 71 108 0.9 3.5 0.00 0.00 0.00 63 1014.2
20260508144535 70 143 0.0 4.3 0.00 0.00 0.00 65 1014.1
20260508133105 66 57 0.9 4.3 0.00 0.00 0.00 71 1014.4
20260508131555 66 107 0.9 4.3 0.00 0.00 0.00 73 1014.7
20260508130052 65 90 0.0 0.0 0.00 0.00 0.00 76 1014.9
20260508124548 62 139 0.0 0.0 0.00 0.00 0.00 85 1014.9